Regional Weather Roundup
Issued by NWS

Home | Current Version | Previous Version | Graphics & Text | Print | Product List | Glossary On
Versions: 1 2 3 4 5 6 7 8 9 10 11 12 13 14 15 16 17 18 19 20 21 22 23 24 25 26 27 28 29 30 31 32 33 34 35 36 37 38 39 40 41 42 43 44 45 46 47 48 49 50
000
ASUS43 KMKX 270721
RWRWI

WISCONSIN REGIONAL WEATHER ROUNDUP
NATIONAL WEATHER SERVICE MILWAUKEE/SULLIVAN WI
200 AM CDT THU JUL 27 2017

NOTE: "FAIR" INDICATES FEW OR NO CLOUDS BELOW 12,000 FEET WITH NO
SIGNIFICANT WEATHER AND/OR OBSTRUCTIONS TO VISIBILITY.

WIZ001-002-006>008-014>016-023>028-270800-
NORTHWEST WISCONSIN

CITY           SKY/WX    TMP DP  RH WIND       PRES   REMARKS
SUPERIOR ARPT  NOT AVBL
ASHLAND        CLEAR     59  57  93 W5        30.03S
HAYWARD        CLOUDY    58  56  93 CALM      30.05R FOG
SIREN          CLEAR     60  58  94 CALM      30.05S
CUMBERLAND     CLEAR     63  59  88 CALM      30.05S
RICE LAKE        N/A     61  60  97 CALM      30.06R FOG
CHETEK         CLEAR     62  62 100 W3        30.04S
LADYSMITH      CLEAR     60  59  96 CALM      30.06R
EAU CLAIRE     CLEAR     62  61  96 CALM      30.01S
MENOMONIE      PTCLDY    65  63  94 CALM      30.03S
NEW RICHMOND     N/A     62  62  99 CALM      30.04S FOG
OSCEOLA        CLEAR     61  61 100 CALM      30.07S
$$

WIZ003>005-009-010-017-018-270800-
NORTH CENTRAL WISCONSIN

CITY           SKY/WX    TMP DP  RH WIND       PRES   REMARKS
MANITOWISH WTR PTCLDY    54  54 100 CALM      30.05S
ARBOR VITAE    CLEAR     57  55  95 N3        30.04S
WOODRUFF       CLEAR     57  55  95 N3        30.04S
RHINELANDER    CLEAR     52  52 100 W5        30.05R FOG
EAGLE RIVER    PTCLDY    54  54 100 CALM      30.04S FOG
LAND O LAKES   CLEAR     52  52 100 CALM      30.06S
PHILLIPS       CLEAR     56  56 100 CALM      30.04S FOG
TOMAHAWK       FOG       52  51  97 CALM      30.05S VSB 1/2
MEDFORD        FOG       57  57  99 CALM      30.03S VSB 1/4
MERRILL        FOG       55  55 100 CALM      30.04S VSB 1/4
$$

WIZ029-030-035-036-043>047-270800-
CENTRAL WISCONSIN

CITY           SKY/WX    TMP DP  RH WIND       PRES   REMARKS
WAUSAU         CLEAR     62  62 100 CALM      30.00S FOG
MOSINEE        CLEAR     64  61  88 N7        30.02F
MARSHFIELD     CLEAR     65  60  84 N7        30.01S
STEVENS POINT  PTCLDY    60  60 100 N3        30.00F FOG
WAUPACA        CLEAR     68  67  98 NW5       29.98F
WAUTOMA        PTCLDY    64  64 100 CALM      29.98S FOG
WISC RAPIDS    CLEAR     65  65 100 NE5       30.00F
CAMP DOUGLAS   FOG       62  62 100 W5        29.98F VSB 1/4
$$

WIZ011>013-019>022-031-037>040-048>050-270800-
NORTHEAST WISCONSIN

CITY           SKY/WX    TMP DP  RH WIND       PRES   REMARKS
ANTIGO         CLEAR     55  55 100 CALM      30.03F FOG
SHAWANO        PTCLDY    68  64  85 N7        29.98S
OCONTO         PTCLDY    66  64  91 CALM      29.97S
STURGEON BAY     N/A     69  64  84 E5        29.97S
GREEN BAY      PTCLDY    70  70 100 N7        29.96F
MANITOWOC      CLEAR     69  67  93 NW3       29.95F
APPLETON       CLEAR     68  68 100 NW6       29.96S
CLINTONVILLE   PTCLDY   N/A N/A N/A N6        29.98S
OSHKOSH        PTCLDY    70  69  97 NW3       29.96S FOG
$$

WIZ032>034-041-042-053>061-270800-
SOUTHWEST WISCONSIN

CITY           SKY/WX    TMP DP  RH WIND       PRES   REMARKS
LA CROSSE      CLEAR     71  69  93 NW5       29.99S
SPARTA         FOG       61  61 100 CALM      30.00S VSB<1/4
VIROQUA        PTCLDY    68  68 100 CALM      30.00F
BOSCOBEL       MOCLDY    70  69  97 CALM      29.97S FOG
PRAIRIE DU CHI CLOUDY    73  71  94 CALM      29.97R
PLATTEVILLE    CLEAR     70  70 100 N8        29.97S
$$

WIZ056-057-062-063-064-067-068-270800-
SOUTH CENTRAL WISCONSIN

CITY           SKY/WX    TMP DP  RH WIND       PRES   REMARKS
REEDSBURG      PTCLDY    68  68 100 CALM      29.97S
BARABOO/DELLS  FOG       68  67  95 CALM      29.97F VSB 3/4
LONE ROCK      MOCLDY    69  69 100 W5        29.96F
MINERAL POINT  CLEAR     70  70 100 N5        29.97F
MADISON        FOG       68  68 100 CALM      29.94F VSB 1/4
MIDDLETON        N/A     69  69 100 CALM      29.96F VSB 1/4
WATERTOWN      PTCLDY    70  70 100 NE3       29.95F
MONROE         FOG       70  70 100 N5        29.95F VSB 1/2
JANESVILLE     PTCLDY    70  70 100 CALM      29.93F FOG
$$

WIZ051-052-058>065-066-070>072-270800-
SOUTHEAST WISCONSIN

CITY           SKY/WX    TMP DP  RH WIND       PRES   REMARKS
MILWAUKEE      CLOUDY    73  71  93 N7        29.94S
WAUKESHA       CLOUDY    68  68 100 CALM      29.96S
MILWAUKEE/TIMM CLOUDY    70  66  88 CALM      29.95F FOG
RACINE         CLOUDY    72  70  93 N3        29.95S
KENOSHA        CLOUDY    74  70  87 NW5       29.94R
FOND DU LAC    FOG       67  65  93 NW3       29.95F VSB 1/4
SHEBOYGAN      FOG       67  67 100 CALM      29.95S VSB 1/4
WEST BEND      LGT RAIN  70  70 100 NW3       29.95F
JUNEAU         CLEAR     69  68  98 CALM      29.97S FOG
$$

LSZ147-162-270800-
LAKE SUPERIOR

STATION/POSITION TIME  TEMP    WIND        PRES    WAVE
                       AIR SEA DIR/SP/G            HT/PER
                 (UTC) (F)     (DEG/KT/KT) (MB)    (FT/S)
W MID LAKE BUOY  0650   59 52  330/  6/  6 1016.0R   1
DEVILS ISLAND    0700   71     340/  9/ 10 1016.5R
SAXON HARBOR     0640   61     200/  4/  5 1016.3R
$$

LMZ867-665-643>646-270800-
LAKE MICHIGAN

STATION/POSITION TIME  TEMP    WIND        PRES    WAVE
                       AIR SEA DIR/SP/G            HT/PER
                 (UTC) (F)     (DEG/KT/KT) (MB)    (FT/S)
CHAMBERS ISLAND  0640   65      CALM  /  1 1014.2F
S GREEN BAY BUOY 0700   71 71   30/  8/ 10 1014.6
N MID LAKE BUOY  0650   67 65  280/  2/  2 1015.3S   2/ 6
NORTHPORT PIER   0640   65        CALM     1014.6F
KEWAUNEE LAKESHO 0654   71     320/  4/  6 1013.4F
SHEBOYGAN LAKESH 0700   70     240/  4/  4 1013.4F
PORT WASHINGTON  0630   72      30/  2/  4 1014.9F
ATWATER BUOY     0609   69 68  360/  4/  8 1014.0F
MILWAUKEE LAKESH 0700   72     340/  7/  8   N/A
S MID LAKE BUOY  0650   72 70  170/  8/  8 1013.1F   0
KENOSHA   LAKESH 0700   71     360/  4/  5 1013.5
$$

TC  - TEMPERATURE IN CELSIUS
VSB - VISIBILITY IN STATUTE MILES
WCI - WIND CHILL INDEX
HX  - HEAT INDEX





USA.gov is the U.S. government's official web portal to all federal, state and local government web resources and services.